TimeMDT,TemperatureF,Dew PointF,Humidity,Sea Level PressureIn,VisibilityMPH,Wind Direction,Wind SpeedMPH,Gust SpeedMPH,PrecipitationIn,Events,Conditions,WindDirDegrees,DateUTC
12:53 AM,55.9,34.0,44,30.20,10.0,Calm,Calm,-,N/A,,Clear,0,2012-09-08 06:53:00
1:53 AM,53.1,34.0,48,30.20,10.0,Calm,Calm,-,N/A,,Clear,0,2012-09-08 07:53:00
2:53 AM,50.0,35.1,57,30.20,10.0,South,5.8,-,N/A,,Clear,170,2012-09-08 08:53:00
3:53 AM,48.9,36.0,61,30.19,10.0,SW,4.6,-,N/A,,Clear,230,2012-09-08 09:53:00
4:53 AM,46.9,35.1,63,30.20,10.0,SSW,8.1,-,N/A,,Clear,210,2012-09-08 10:53:00
5:53 AM,46.0,34.0,63,30.21,10.0,WSW,5.8,-,N/A,,Clear,240,2012-09-08 11:53:00
6:53 AM,45.0,34.0,65,30.22,10.0,Calm,Calm,-,N/A,,Clear,0,2012-09-08 12:53:00
7:53 AM,53.1,36.0,52,30.24,10.0,SSW,3.5,-,N/A,,Clear,200,2012-09-08 13:53:00
8:53 AM,61.0,34.0,36,30.24,10.0,West,8.1,-,N/A,,Clear,270,2012-09-08 14:53:00
9:53 AM,66.0,35.1,32,30.25,10.0,North,4.6,-,N/A,,Clear,10,2012-09-08 15:53:00
10:53 AM,69.1,37.0,31,30.25,10.0,NNE,9.2,-,N/A,,Clear,20,2012-09-08 16:53:00
11:53 AM,70.0,41.0,35,30.24,10.0,North,6.9,-,N/A,,Clear,10,2012-09-08 17:53:00
12:53 PM,73.9,45.0,35,30.23,10.0,North,5.8,-,N/A,,Clear,10,2012-09-08 18:53:00
1:53 PM,75.9,44.1,32,30.22,10.0,NNE,8.1,-,N/A,,Clear,30,2012-09-08 19:53:00
2:53 PM,79.0,44.1,29,30.18,10.0,North,5.8,-,N/A,,Clear,10,2012-09-08 20:53:00
3:53 PM,78.1,45.0,31,30.16,10.0,ESE,4.6,-,N/A,,Clear,120,2012-09-08 21:53:00
4:53 PM,78.1,44.1,30,30.14,10.0,East,6.9,-,N/A,,Clear,100,2012-09-08 22:53:00
5:53 PM,78.1,44.1,30,30.14,10.0,ESE,4.6,-,N/A,,Clear,110,2012-09-08 23:53:00
6:53 PM,75.9,43.0,31,30.13,10.0,Calm,Calm,-,N/A,,Clear,0,2012-09-09 00:53:00
7:53 PM,68.0,42.1,39,30.12,10.0,NE,6.9,-,N/A,,Clear,40,2012-09-09 01:53:00
8:53 PM,68.0,39.9,36,30.12,10.0,ENE,8.1,-,N/A,,Clear,70,2012-09-09 02:53:00
9:53 PM,64.0,37.0,37,30.12,10.0,ENE,5.8,-,N/A,,Clear,70,2012-09-09 03:53:00
10:53 PM,57.9,37.0,46,30.12,10.0,NE,3.5,-,N/A,,Clear,50,2012-09-09 04:53:00
11:53 PM,63.0,35.1,35,30.10,10.0,SSE,4.6,-,N/A,,Clear,150,2012-09-09 05:53:00